Location: Carri�res
(48.9069°N, 2.1792°E)
Time: 19:04:04
(UTC+00:00)

SeaSat 1 - Pass Details

Date: 13 May 2021
Orbit: 744 x 747 km, 108.0° (Epoch: 12 June)

Event Time Altitude Azimuth Distance (km) Brightness Sun altitude
Rises 23:15:21 0° 39° (NE) 3,201 6.3 -22.1°
Reaches altitude 10° 23:18:05 10° 54° (NE) 2,272 5.3 -22.1°
Enters shadow 23:21:57 23° 106° (ESE) 1,550 3.9 -22.2°
